Date String (YYYY-MM-DD hh:mm:ss) UTC,Instrument flags,absolute air pressure of the measurement (hPa),sample flow rate (lpm),inlet stack bypass flow (lpm),air temperature of the measurement (°C),ambient temperature measured by the external sensor (°C),aerosol sample conditioner tube jacket temperature (°C),OPC LED temperature (°C),internal box temperature (°C),relative humidity of the measurement (%),span deviation,mass concentration of particles derived from Lorenz-Mie calculation of OPC scattering (μg/m³),mass concentration of particles derived from Lorenz-Mie calculation of OPC scattering (μg/m³),mass concentration of particles derived from Lorenz-Mie calculation of OPC scattering (μg/m³)
DateTimeUTC,F1_M11,P_M11,Q1_M11,Q2_M11,T1_M11,T2_M11,T3_M11,T4_M11,T5_M11,U1_M11,ZSPAN_M11,X2_M11,X0_M11,X1_M11
2023-12-03 02:00:00,SystemResetWarning,0819.3,5.00,000.00,018.7,017.7,000.0,027.2,020.0,10.0,0000.0,0000.78,0002.54,0000.44
2023-12-03 02:01:00,SystemResetWarning,0819.3,5.00,000.00,018.7,017.7,000.0,027.2,020.0,10.1,0000.0,0000.80,0003.18,0000.44
2023-12-03 02:02:00,SystemResetWarning,0819.3,5.00,000.00,018.7,017.7,000.0,027.2,020.0,10.1,0000.0,0000.81,0003.23,0000.44
2023-12-03 02:03:00,SystemResetWarning,0819.3,5.00,000.00,018.7,017.7,000.0,027.2,020.0,10.3,0000.0,0000.81,0003.33,0000.44
2023-12-03 02:04:00,SystemResetWarning,0819.3,4.99,000.00,018.7,017.7,000.0,027.2,020.0,10.5,0000.0,0000.83,0003.94,0000.43
2023-12-03 02:05:00,SystemResetWarning,0819.4,5.00,000.00,018.7,017.7,000.0,027.2,020.0,10.4,0000.0,0000.87,0004.33,0000.43
2023-12-03 02:06:00,SystemResetWarning,0819.5,5.00,000.00,018.7,017.7,000.0,027.2,020.0,10.6,0000.0,0000.88,0004.35,0000.43
2023-12-03 02:07:00,SystemResetWarning,0819.5,4.99,000.00,018.7,017.7,000.0,027.2,020.0,10.6,0000.0,0000.86,0004.07,0000.44
2023-12-03 02:08:00,SystemResetWarning,0819.4,5.00,000.00,018.7,017.7,000.0,027.2,020.0,10.4,0000.0,0000.81,0003.93,0000.43
2023-12-03 02:09:00,SystemResetWarning,0819.5,5.00,000.00,018.7,017.7,000.0,027.2,020.0,10.3,0000.0,0000.77,0003.83,0000.42
2023-12-03 02:10:00,SystemResetWarning,0819.5,5.00,000.00,018.7,017.7,000.0,027.2,020.0,10.4,0000.0,0000.79,0003.91,0000.42
2023-12-03 02:11:00,SystemResetWarning,0819.7,5.00,000.00,018.7,017.7,000.0,027.2,020.0,10.5,0000.0,0000.80,0003.81,0000.43
2023-12-03 02:12:00,SystemResetWarning,0819.6,5.01,000.00,018.7,017.8,000.0,027.2,020.0,10.3,0000.0,0000.80,0002.97,0000.43
2023-12-03 02:13:00,SystemResetWarning,0819.7,5.00,000.00,018.7,017.8,000.0,027.2,020.0,10.0,0000.0,0000.81,0002.94,0000.44
2023-12-03 02:14:00,SystemResetWarning,0819.8,5.01,000.00,018.7,017.8,000.0,027.2,020.0,10.0,0000.0,0000.82,0002.83,0000.44
2023-12-03 02:15:00,SystemResetWarning,0819.9,5.00,000.00,018.7,017.8,000.0,027.2,020.0,10.2,0000.0,0000.82,0002.37,0000.45
2023-12-03 02:16:00,SystemResetWarning,0819.7,5.00,000.00,018.7,017.8,000.0,027.2,020.0,10.3,0000.0,0000.83,0001.92,0000.44
2023-12-03 02:17:00,SystemResetWarning,0819.7,4.99,000.00,018.7,017.8,000.0,027.2,020.0,10.2,0000.0,0000.83,0002.00,0000.46
2023-12-03 02:18:00,SystemResetWarning,0819.8,4.99,000.00,018.7,017.8,000.0,027.2,020.0,10.1,0000.0,0000.82,0002.75,0000.45
2023-12-03 02:19:00,SystemResetWarning,0819.5,5.01,000.00,018.7,017.7,000.0,027.2,020.0,10.1,0000.0,0000.85,0004.11,0000.46
2023-12-03 02:20:00,SystemResetWarning,0819.6,5.01,000.00,018.7,017.7,000.0,027.2,020.0,10.0,0000.0,0000.91,0004.78,0000.46
2023-12-03 02:21:00,SystemResetWarning,0819.7,5.00,000.00,018.7,017.7,000.0,027.2,020.0,10.1,0000.0,0000.89,0004.67,0000.46
2023-12-03 02:22:00,SystemResetWarning,0819.8,4.99,000.00,018.7,017.7,000.0,027.2,020.0,10.2,0000.0,0000.86,0004.60,0000.46
2023-12-03 02:23:00,SystemResetWarning,0819.8,4.99,000.00,018.7,017.7,000.0,027.2,020.0,10.1,0000.0,0000.85,0004.51,0000.45
2023-12-03 02:24:00,SystemResetWarning,0819.8,5.00,000.00,018.7,017.7,000.0,027.2,020.0,10.2,0000.0,0000.83,0004.51,0000.44
2023-12-03 02:25:00,SystemResetWarning,0819.8,5.00,000.00,018.7,017.7,000.0,027.2,020.0,10.2,0000.0,0000.80,0004.46,0000.43
2023-12-03 02:26:00,SystemResetWarning,0819.9,5.01,000.00,018.7,017.7,000.0,027.2,020.0,10.2,0000.0,0000.75,0004.49,0000.42
2023-12-03 02:27:00,SystemResetWarning,0819.8,5.01,000.00,018.7,017.7,000.0,027.2,020.0,10.0,0000.0,0000.72,0004.43,0000.42
2023-12-03 02:28:00,SystemResetWarning,0820.1,5.01,000.00,018.7,017.7,000.0,027.2,020.0,10.1,0000.0,0000.69,0004.31,0000.41
2023-12-03 02:29:00,SystemResetWarning,0819.8,5.00,000.00,018.7,017.7,000.0,027.2,020.0,10.0,0000.0,0000.69,0003.75,0000.41
2023-12-03 02:30:00,SystemResetWarning,0819.8,5.00,000.00,018.7,017.7,000.0,027.2,020.0,10.0,0000.0,0000.68,0002.68,0000.41
2023-12-03 02:31:00,SystemResetWarning,0819.6,4.99,000.00,018.7,017.7,000.0,027.2,020.0,10.0,0000.0,0000.63,0002.28,0000.41
2023-12-03 02:32:00,SystemResetWarning,0819.5,5.00,000.00,018.7,017.8,000.0,027.2,020.0,10.0,0000.0,0000.65,0002.80,0000.41
2023-12-03 02:33:00,SystemResetWarning,0819.7,5.00,000.00,018.7,017.8,000.0,027.2,020.0,10.1,0000.0,0000.67,0002.83,0000.41
2023-12-03 02:34:00,SystemResetWarning,0819.7,5.00,000.00,018.7,017.8,000.0,027.2,020.0,10.3,0000.0,0000.68,0002.86,0000.42
2023-12-03 02:35:00,SystemResetWarning,0819.9,5.00,000.00,018.7,017.8,000.0,027.2,020.0,10.2,0000.0,0000.70,0002.91,0000.43
2023-12-03 02:36:00,SystemResetWarning,0819.9,5.00,000.00,018.7,017.8,000.0,027.2,020.0,10.2,0000.0,0000.68,0002.81,0000.43
2023-12-03 02:37:00,SystemResetWarning,0819.8,5.00,000.00,018.7,017.8,000.0,027.2,020.0,10.2,0000.0,0000.70,0002.83,0000.45
2023-12-03 02:38:00,SystemResetWarning,0819.8,5.00,000.00,018.7,017.9,000.0,027.2,020.0,10.3,0000.0,0000.70,0003.07,0000.44
2023-12-03 02:39:00,SystemResetWarning,0819.8,5.01,000.00,018.7,017.9,000.0,027.2,020.0,10.3,0000.0,0000.72,0003.18,0000.45
2023-12-03 02:40:00,SystemResetWarning,0819.8,5.01,000.00,018.7,017.9,000.0,027.2,020.0,10.3,0000.0,0000.74,0003.26,0000.45
2023-12-03 02:41:00,SystemResetWarning,0819.8,5.00,000.00,018.7,017.9,000.0,027.2,020.0,10.3,0000.0,0000.74,0002.92,0000.46
2023-12-03 02:42:00,SystemResetWarning,0819.7,5.00,000.00,018.7,017.9,000.0,027.2,020.0,10.3,0000.0,0000.79,0002.95,0000.46
2023-12-03 02:43:00,SystemResetWarning,0819.6,4.99,000.00,018.8,017.9,000.0,027.2,020.0,10.4,0000.0,0000.78,0003.01,0000.46
2023-12-03 02:44:00,SystemResetWarning,0819.5,5.00,000.00,018.7,017.9,000.0,027.2,020.0,10.7,0000.0,0000.75,0002.99,0000.45
2023-12-03 02:45:00,SystemResetWarning,0819.5,5.00,000.00,018.7,017.9,000.0,027.2,020.0,10.9,0000.0,0000.71,0002.91,0000.45
2023-12-03 02:46:00,SystemResetWarning,0819.8,4.99,000.00,018.8,017.8,000.0,027.2,020.0,10.7,0000.0,0000.69,0002.82,0000.43
2023-12-03 02:47:00,SystemResetWarning,0819.7,5.00,000.00,018.7,017.8,000.0,027.2,020.0,10.6,0000.0,0000.68,0002.80,0000.43
2023-12-03 02:48:00,SystemResetWarning,0819.9,5.00,000.00,018.8,017.8,000.0,027.2,020.0,10.4,0000.0,0000.68,0002.69,0000.43
2023-12-03 02:49:00,SystemResetWarning,0819.9,5.00,000.00,018.8,017.8,000.0,027.2,020.0,10.6,0000.0,0000.72,0002.40,0000.42
2023-12-03 02:50:00,SystemResetWarning,0819.6,5.00,000.00,018.7,017.8,000.0,027.2,020.0,10.7,0000.0,0000.71,0002.32,0000.43
2023-12-03 02:51:00,SystemResetWarning,0819.5,5.00,000.00,018.7,017.8,000.0,027.2,020.0,10.4,0000.0,0000.68,0002.23,0000.43
2023-12-03 02:52:00,SystemResetWarning,0819.7,5.00,000.00,018.8,017.8,000.0,027.2,020.0,10.2,0000.0,0000.70,0002.24,0000.44
2023-12-03 02:53:00,SystemResetWarning,0819.7,5.00,000.00,018.8,017.8,000.0,027.2,020.0,10.2,0000.0,0000.71,0002.17,0000.45
2023-12-03 02:54:00,SystemResetWarning,0819.5,5.01,000.00,018.8,017.8,000.0,027.2,020.0,10.2,0000.0,0000.72,0001.59,0000.47
2023-12-03 02:55:00,SystemResetWarning,0819.5,5.01,000.00,018.8,017.8,000.0,027.2,020.0,10.2,0000.0,0000.75,0001.45,0000.49
2023-12-03 02:56:00,SystemResetWarning,0819.8,5.00,000.00,018.8,017.8,000.0,027.2,020.0,10.2,0000.0,0000.77,0002.00,0000.51
2023-12-03 02:57:00,SystemResetWarning,0820.0,5.00,000.00,018.8,017.9,000.0,027.2,020.0,10.2,0000.0,0000.79,0002.51,0000.53
2023-12-03 02:58:00,SystemResetWarning,0819.9,5.00,000.00,018.8,017.9,000.0,027.2,020.0,10.1,0000.0,0000.83,0002.61,0000.54
2023-12-03 02:59:00,SystemResetWarning,0819.9,5.00,000.00,018.8,017.9,000.0,027.2,020.0,10.1,0000.0,0000.89,0002.82,0000.55
